User: anonymous   Login
Location: Edmonton
(53.5500°N, 113.5000°W)
Time: 23:15:45
(UTC-06:00)
Language:

CZ-4C R/B - Orbit

View from above orbital plane
View from above orbital plane
View from above satellite
View from above satellite

Ground track
Ground track

The orbit data is extracted from the following two-line orbital elements,

1 36416U 10009D   16120.04158563 -.00000078  00000-0  13616-4 0  9999
2 36416  63.4428 294.2373 0346336 357.5381   2.3938 13.69496111307653
Epoch (UTC): 29 April 2016 00:59:52
Eccentricity: 0.0346336
inclination: 63.4428°
perigee height: 746 km
apogee height: 1257 km
right ascension of ascending node: 294.2373°
argument of perigee: 357.5381°
revolutions per day: 13.69496111
mean anomaly at epoch: 2.3938°
orbit number at epoch: 30765

The dashed part of the orbit path shows where the satellite is in the earth's shadow,  

DLR